Meeandah, Australia

12:48 AM AEST on February 26, 2018 (GMT +1000)
Meeandah

Weather History for 94578 - November, 2013

Change the Weather History Date:

Saturday, November 23, 2013

  Actual Average Record
Temperature  
Mean Temperature 75 °F -  
Max Temperature 82 °F 83 °F - ()
Min Temperature 68 °F 67 °F - ()
Cooling Degree Days 10    
Growing Degree Days 25 (Base 50)    
Moisture  
Dew Point 67 °F    
Average Humidity 74    
Maximum Humidity 94    
Minimum Humidity 53    
Precipitation  
Precipitation 0.35 in 0.17 in - ()
Sea Level Pressure  
Sea Level Pressure 29.75 in    
Wind  
Wind Speed 12 mph ()    
Max Wind Speed 28 mph    
Max Gust Speed -    
Visibility 7.5 miles    
Events Rain , Thunderstorm    
T = Trace of Precipitation, MM = Missing Value Source: Averaged Metar Reports

Daily Weather History Graph

Daily Weather History Graph

Search for Another Location

Airport or City:

Trip Planner

Search our weather history database for the weather conditions in past years. The results will help you decide how hot, cold, wet, or windy it might be!

Date:

Astronomy

Nov. 23, 2013 Rise Set
Actual Time 4:45 AM AEST 6:22 PM AEST
Civil Twilight 4:19 AM AEST 6:48 PM AEST
Nautical Twilight 3:49 AM AEST 7:19 PM AEST
Astronomical Twilight 3:16 AM AEST 7:51 PM AEST
Moon 10:35 PM AEST (11/23) 9:09 AM AEST (11/23)
Length of Visible Light 14h 28m
Length of Day
13h 36m
Waning Gibbous, 75% of the Moon is Illuminated
Nov 23
Waning Gibbous
Nov 26
Last Quarter
Dec 3
New
Dec 10
First Quarter
Dec 17
Full

Hourly Weather History & Observations

Time (AEST) Temp. Heat Index Dew Point Humidity Pressure Visibility Wind Dir Wind Speed Gust Speed Precip Events Conditions
12:00 AM 73 °F - 64 °F 67% 29.84 in 19 mi North 11.5 mph - -   Partly Cloudy
12:00 AM 73.4 °F - 64.4 °F 73% 29.83 in 6.2 mi North 11.5 mph - N/A   Mostly Cloudy
12:30 AM 71.6 °F - 64.4 °F 78% 29.80 in 6.2 mi North 11.5 mph - N/A   Mostly Cloudy
1:00 AM 73 °F - 65 °F 70% 29.82 in - North 12.7 mph - -  
1:00 AM 73.4 °F - 64.4 °F 73% 29.80 in 6.2 mi North 12.7 mph - N/A   Mostly Cloudy
1:30 AM 73.4 °F - 66.2 °F 78% 29.80 in 6.2 mi North 10.4 mph - N/A   Mostly Cloudy
2:00 AM 71.6 °F - 66.2 °F 83% 29.80 in 6.2 mi North 9.2 mph - N/A   Light Drizzle
2:30 AM 71.6 °F - 66.2 °F 83% 29.77 in 6.2 mi North 8.1 mph - N/A   Mostly Cloudy
3:00 AM 73 °F - 66 °F 74% 29.78 in 19 mi North 10.4 mph - -   Partly Cloudy
3:00 AM 73.4 °F - 66.2 °F 78% 29.77 in 6.2 mi North 10.4 mph - N/A   Mostly Cloudy
3:30 AM 71.6 °F - 66.2 °F 83% 29.77 in 6.2 mi NNE 10.4 mph - N/A   Mostly Cloudy
4:00 AM 73 °F - 66 °F 73% 29.78 in - North 10.4 mph - -  
4:00 AM 73.4 °F - 66.2 °F 78% 29.77 in 6.2 mi North 10.4 mph - N/A   Mostly Cloudy
4:30 AM 73.4 °F - 66.2 °F 78% 29.80 in 6.2 mi NNW 8.1 mph - N/A   Mostly Cloudy
5:00 AM 71.6 °F - 66.2 °F 83% 29.80 in 6.2 mi West 8.1 mph - N/A   Mostly Cloudy
5:30 AM 71.6 °F - 64.4 °F 78% 29.80 in 6.2 mi NNW 9.2 mph - N/A   Mostly Cloudy
6:00 AM 73 °F - 65 °F 69% 29.81 in 19 mi NNW 9.2 mph - -   Partly Cloudy
6:00 AM 73.4 °F - 64.4 °F 73% 29.80 in 6.2 mi NNW 9.2 mph - N/A   Mostly Cloudy
6:30 AM 73.4 °F - 64.4 °F 73% 29.80 in 6.2 mi NNW 9.2 mph - N/A   Mostly Cloudy
7:00 AM 73 °F - 63 °F 63% 29.83 in - NW 8.1 mph - -  
7:00 AM 73.4 °F - 62.6 °F 69% 29.83 in 6.2 mi NW 8.1 mph - N/A   Mostly Cloudy
7:30 AM 75.2 °F - 64.4 °F 69% 29.80 in 6.2 mi NW 6.9 mph - N/A   Mostly Cloudy
8:00 AM 77.0 °F - 64.4 °F 65% 29.80 in 6.2 mi NNW 8.1 mph - N/A   Mostly Cloudy
8:30 AM 78.8 °F - 64.4 °F 61% 29.80 in 6.2 mi NNW 10.4 mph - N/A   Mostly Cloudy
9:00 AM 79 °F - 65 °F 53% 29.81 in 19 mi North 9.2 mph - -   Partly Cloudy
9:00 AM 78.8 °F - 64.4 °F 61% 29.80 in 6.2 mi North 9.2 mph - N/A   Mostly Cloudy
9:30 AM 80.6 °F 82.7 °F 66.2 °F 61% 29.80 in 6.2 mi NNE 8.1 mph - N/A   Scattered Clouds
10:00 AM 78 °F - 65 °F 55% 29.80 in - NNE 11.5 mph - -  
10:00 AM 78.8 °F - 64.4 °F 61% 29.80 in 6.2 mi NNE 11.5 mph - N/A   Mostly Cloudy
10:30 AM 80.6 °F 82.7 °F 66.2 °F 61% 29.80 in 6.2 mi NE 11.5 mph - N/A   Scattered Clouds
11:00 AM 80.6 °F 82.7 °F 66.2 °F 61% 29.77 in 6.2 mi NE 15.0 mph - N/A   Scattered Clouds
11:30 AM 78.8 °F - 66.2 °F 65% 29.77 in 6.2 mi NNE 12.7 mph - N/A   Scattered Clouds
12:00 PM 80 °F - 69 °F 60% 29.77 in 12 mi NNE 17.3 mph - -   Partly Cloudy
12:00 PM 80.6 °F 83.2 °F 68.0 °F 65% 29.77 in 6.2 mi NNE 17.3 mph - N/A   Scattered Clouds
12:30 PM 80.6 °F 83.2 °F 68.0 °F 65% 29.74 in 6.2 mi NNE 17.3 mph - N/A   Partly Cloudy
1:00 PM 80 °F - 68 °F 59% 29.75 in - NNE 19.6 mph - -  
1:00 PM 80.6 °F 83.2 °F 68.0 °F 65% 29.74 in 6.2 mi NNE 19.6 mph - N/A   Partly Cloudy
1:30 PM 80.6 °F 83.2 °F 68.0 °F 65% 29.71 in 6.2 mi NNE 19.6 mph - N/A   Partly Cloudy
2:00 PM 82.4 °F 86.3 °F 69.8 °F 66% 29.71 in 6.2 mi NNE 20.7 mph - N/A   Partly Cloudy
2:30 PM 78.8 °F - 68.0 °F 69% 29.68 in 6.2 mi NNE 23.0 mph - N/A   Partly Cloudy
3:00 PM 79 °F - 68 °F 62% 29.68 in 16 mi NNE 23.0 mph - -   Partly Cloudy
3:00 PM 78.8 °F - 68.0 °F 69% 29.68 in 6.2 mi NNE 23.0 mph - N/A   Partly Cloudy
3:30 PM 78.8 °F - 68.0 °F 69% 29.65 in 6.2 mi North 24.2 mph - N/A   Partly Cloudy
4:00 PM 78 °F - 69 °F 66% 29.67 in - North 24.2 mph - -  
4:00 PM 78.8 °F - 68.0 °F 69% 29.65 in 6.2 mi North 24.2 mph - N/A   Partly Cloudy
4:30 PM 77.0 °F - 69.8 °F 78% 29.65 in 6.2 mi North 23.0 mph - N/A   Scattered Clouds
5:00 PM 78.8 °F - 69.8 °F 74% 29.65 in 6.2 mi North 23.0 mph - N/A   Partly Cloudy
5:30 PM 77.0 °F - 69.8 °F 78% 29.65 in 6.2 mi North 26.5 mph - N/A   Partly Cloudy
6:00 PM 76 °F - 69 °F 75% 29.67 in 16 mi North 23.0 mph - -   Scattered Clouds
6:00 PM 77.0 °F - 69.8 °F 78% 29.65 in 6.2 mi North 23.0 mph - N/A   Mostly Cloudy
6:30 PM 75.2 °F - 69.8 °F 83% 29.65 in 6.2 mi North 24.2 mph - N/A   Mostly Cloudy
7:00 PM 76 °F - 70 °F 78% 29.67 in - North 25.3 mph - -  
7:00 PM 77.0 °F - 69.8 °F 78% 29.65 in 6.2 mi North 25.3 mph - N/A   Mostly Cloudy
7:30 PM 75.2 °F - 69.8 °F 83% 29.65 in 6.2 mi North 24.2 mph - N/A   Mostly Cloudy
8:00 PM 77.0 °F - 71.6 °F 83% 29.68 in 6.2 mi North 20.7 mph - N/A   Mostly Cloudy
8:30 PM 71.6 °F - 66.2 °F 83% 29.77 in 6.2 mi WNW 27.6 mph - N/A Rain Rain Showers
8:36 PM 69.8 °F - 66.2 °F 88% 29.77 in 1.9 mi West 21.9 mph - N/A Rain , Thunderstorm Thunderstorms and Rain
9:00 PM 69 °F - 67 °F 90% 29.75 in 6 mi SSW 4.6 mph - - Rain , Thunderstorm Thunderstorms and Rain
9:00 PM 68.0 °F - 66.2 °F 94% 29.74 in 5.6 mi SSW 4.6 mph - N/A Rain , Thunderstorm Light Thunderstorms and Rain
9:30 PM 68.0 °F - 66.2 °F 94% 29.74 in 6.2 mi East 2.3 mph - N/A Rain , Thunderstorm Light Rain
10:00 PM 69 °F - 66 °F 88% 29.74 in - NE 8.1 mph - -  
10:00 PM 68.0 °F - 66.2 °F 94% 29.71 in 6.2 mi NE 8.1 mph - N/A Rain , Thunderstorm Light Rain
10:30 PM 69.8 °F - 66.2 °F 88% 29.71 in 6.2 mi NE 4.6 mph - N/A Rain , Thunderstorm Light Rain
11:00 PM 68.0 °F - 66.2 °F 94% 29.71 in 6.2 mi NE 4.6 mph - N/A   Mostly Cloudy
11:30 PM 69.8 °F - 68.0 °F 94% 29.74 in 6.2 mi Calm Calm - N/A   Mostly Cloudy